This demonstration page uses our WeatherBlox Daily Observations layout. Learn more.

Left ArrowRight Arrow

Hourly Observations for April 5, 2018

Temp ( °F °C ) Dew Point ( °F °C ) Humidity (%) Winds ( mph kmh ) Pressure ( in mb ) Visibility ( mi km ) Precip ( " mm )
12:59 am 00:59 Clear 49 9.4 20 -6.7 32 32 NW 20 31 30.06 1018 10 16 0.00 0.00
1:59 am 01:59 Clear 47 8.3 20 -6.7 34 34 NW 15 24 30.07 1018 10 16 0.00 0.00
2:59 am 02:59 Clear 46 7.8 22 -5.6 38 38 NNW 14 22 30.09 1019 10 16 0.00 0.00
3:59 am 03:59 Clear 44 6.7 21 -6.1 40 40 NNW 16 26 30.12 1020 10 16 0.00 0.00
4:59 am 04:59 Clear 43 6.1 21 -6.1 42 42 NNW 15 24 30.14 1021 10 16 0.00 0.00
5:59 am 05:59 Clear 42 5.6 23 -5 47 47 NNW 13 20 30.17 1022 10 16 0.00 0.00
6:59 am 06:59 Mostly Sunny 42 5.6 23 -5 47 47 N 10 17 30.19 1022 10 16 0.00 0.00
7:59 am 07:59 Mostly Sunny 43 6.1 24 -4.4 47 47 NNW 10 17 30.22 1023 10 16 0.00 0.00
8:59 am 08:59 Mostly Sunny 44 6.7 24 -4.4 45 45 N 10 17 30.22 1023 10 16 0.00 0.00
9:59 am 09:59 Mostly Sunny 46 7.8 25 -3.9 44 44 NE 9 15 30.23 1024 10 16 0.00 0.00
10:59 am 10:59 Mostly Sunny 46 7.8 25 -3.9 44 44 VRB 5 7 30.23 1024 10 16 0.00 0.00
11:59 am 11:59 Mostly Sunny 48 8.9 26 -3.3 42 42 VRB 5 7 30.23 1024 10 16 0.00 0.00
12:59 pm 12:59 Mostly Sunny 50 10 25 -3.9 38 38 NNW 7 11 30.22 1024 10 16 0.00 0.00
1:59 pm 13:59 Mostly Sunny 52 11.1 27 -2.8 38 38 NNE 7 11 30.21 1023 10 16 0.00 0.00
2:59 pm 14:59 Mostly Sunny 54 12.2 27 -2.8 35 35 N 6 9 30.19 1022 10 16 0.00 0.00
3:59 pm 15:59 Mostly Sunny 54 12.2 24 -4.4 31 31 VRB 6 9 30.15 1021 10 16 0.00 0.00
4:59 pm 16:59 Mostly Sunny 56 13.3 28 -2.2 34 34 NNE 6 9 30.16 1021 10 16 0.00 0.00
5:59 pm 17:59 Mostly Sunny 52 11.1 32 0 47 47 E 8 13 30.16 1021 10 16 0.00 0.00
6:59 pm 18:59 Mostly Sunny 49 9.4 30 -1.1 48 48 SSE 10 17 30.15 1021 10 16 0.00 0.00
7:59 pm 19:59 Mostly Clear 46 7.8 32 0 58 58 SSE 8 13 30.15 1021 10 16 0.00 0.00
8:59 pm 20:59 Mostly Clear 44 6.7 32 0 63 63 SSE 9 15 30.17 1022 10 16 0.00 0.00
9:59 pm 21:59 Clear 44 6.7 34 1.1 68 68 SSE 9 15 30.18 1022 10 16 0.00 0.00
10:59 pm 22:59 Clear 44 6.7 35 1.7 71 71 SSE 9 15 30.16 1021 10 16 0.00 0.00
11:59 pm 23:59 Clear 44 6.7 37 2.8 76 76 S 8 13 30.16 1021 10 16 0.00 0.00

Powered by AerisWeather